This is the latest recevied weather packets stored in our database for station/object VU3DUE-WX. If no packets are shown the sender has not sent any weather packets the latest 10 day(s).
| Time | Temp. | Humidity | Pressure | Rain* | Wind** | Luminosity | Snow |
|---|---|---|---|---|---|---|---|
| 1787982551 | 26.11° C | 64% | 912.2 hPa | - | - | - | - |
| 1787981951 | 26.67° C | 63% | 912.4 hPa | - | - | - | - |
| 1787981351 | 26.67° C | 64% | 912.6 hPa | - | - | - | - |
| 1787980751 | 26.11° C | 65% | 912.7 hPa | - | - | - | - |
| 1787980151 | 26.67° C | 65% | 912.6 hPa | - | - | - | - |
| 1787979551 | 26.11° C | 66% | 912.7 hPa | - | - | - | - |
| 1787978951 | 26.67° C | 66% | 912.7 hPa | - | - | - | - |
| 1787978351 | 26.11° C | 67% | 912.6 hPa | - | - | - | - |
| 1787977751 | 26.67° C | 67% | 912.6 hPa | - | - | - | - |
| 1787977151 | 26.11° C | 68% | 912.7 hPa | - | - | - | - |
| 1787976551 | 26.11° C | 68% | 912.7 hPa | - | - | - | - |
| 1787975951 | 26.11° C | 69% | 912.4 hPa | - | - | - | - |
| 1787975351 | 25.56° C | 71% | 912.5 hPa | - | - | - | - |
| 1787974751 | 25.56° C | 70% | 912.5 hPa | - | - | - | - |
| 1787974151 | 26.11° C | 71% | 912.5 hPa | - | - | - | - |
| 1787973551 | 25.56° C | 71% | 912.4 hPa | - | - | - | - |
| 1787973153 | 25.56° C | 72% | 912.3 hPa | - | - | - | - |
| 1787972553 | 25.56° C | 70% | 912.3 hPa | - | - | - | - |
| 1787971953 | 25.56° C | 67% | 912.2 hPa | - | - | - | - |
| 1787971354 | 25.56° C | 67% | 912.2 hPa | - | - | - | - |
| 1787970753 | 26.11° C | 67% | 912.1 hPa | - | - | - | - |
| 1787970153 | 26.11° C | 67% | 912.1 hPa | - | - | - | - |
| 1787969553 | 25.56° C | 68% | 911.9 hPa | - | - | - | - |
| 1787968954 | 25.56° C | 68% | 911.9 hPa | - | - | - | - |
| 1787968353 | 25.56° C | 68% | 911.7 hPa | - | - | - | - |
* Rain since midnight (hover to see other rain measurements)
** Current wind speed in m/s (hover to see current wind gust speed)